Menominee, MI

6:29 AM CDT on July 25, 2017 (GMT -0500)
Menominee-Marinette Twin County

Weather History for KMNM - November, 2014

Change the Weather History Date:

Sunday, November 9, 2014

  Actual Average Record
Temperature  
Mean Temperature 32 °F -  
Max Temperature 39 °F 46 °F 73 °F (1999)
Min Temperature 26 °F 31 °F 12 °F (1991)
Degree Days  
Heating Degree Days 32    
Moisture  
Dew Point 25 °F    
Average Humidity 73    
Maximum Humidity 93    
Minimum Humidity 45    
Precipitation  
Precipitation 0.00 in - - ()
Sea Level Pressure  
Sea Level Pressure 29.74 in    
Wind  
Wind Speed 7 mph (West)    
Max Wind Speed 15 mph    
Max Gust Speed 20 mph    
Visibility 9 miles    
Events      
Averages and records for this station are not official NWS values.
T = Trace of Precipitation, MM = Missing Value Source: NWS Daily Summary

Daily Weather History Graph

Daily Weather History Graph

Search for Another Location

Airport or City:

Trip Planner

Search our weather history database for the weather conditions in past years. The results will help you decide how hot, cold, wet, or windy it might be!

Date:

Astronomy

Nov. 09, 2014 Rise Set
Actual Time 6:40 AM CST 4:27 PM CST
Civil Twilight 6:08 AM CST 4:59 PM CST
Nautical Twilight 5:33 AM CST 5:34 PM CST
Astronomical Twilight 4:59 AM CST 6:08 PM CST
Moon 6:58 PM CST (11/9) 9:14 AM CST (11/9)
Length of Visible Light 10h 50m
Length of Day
9h 47m
Waning Gibbous, 91% of the Moon is Illuminated
Nov 9
Waning Gibbous
Nov 14
Last Quarter
Nov 22
New
Nov 29
First Quarter
Dec 6
Full

Hourly Weather History & Observations

Time (CST) Temp. Windchill Dew Point Humidity Pressure Visibility Wind Dir Wind Speed Gust Speed Precip Events Conditions
12:15 AM 30.2 °F 23.4 °F 21.2 °F 69% 29.79 in 10.0 mi WSW 6.9 mph - N/A   Overcast
12:35 AM 32.0 °F 26.4 °F 21.2 °F 64% 29.78 in 10.0 mi WSW 5.8 mph - N/A   Overcast
12:55 AM 32.0 °F 25.6 °F 21.2 °F 64% 29.78 in 10.0 mi WSW 6.9 mph - N/A   Overcast
1:15 AM 33.8 °F 27.0 °F 23.0 °F 65% 29.76 in 10.0 mi WSW 8.1 mph - N/A   Overcast
1:35 AM 33.8 °F 25.8 °F 23.0 °F 65% 29.76 in 10.0 mi SW 10.4 mph - N/A   Overcast
1:55 AM 33.8 °F 23.9 °F 23.0 °F 65% 29.75 in 10.0 mi WSW 15.0 mph 18.4 mph N/A   Overcast
2:15 AM 33.8 °F 27.7 °F 26.6 °F 75% 29.75 in 4.0 mi WSW 6.9 mph - N/A   Overcast
2:35 AM 32.0 °F 24.8 °F 28.4 °F 87% 29.74 in 5.0 mi WSW 8.1 mph - N/A   Overcast
2:55 AM 32.0 °F 24.8 °F 26.6 °F 80% 29.74 in 8.0 mi WSW 8.1 mph - N/A   Mostly Cloudy
3:15 AM 32.0 °F 24.2 °F 28.4 °F 87% 29.73 in 10.0 mi SW 9.2 mph - N/A   Mostly Cloudy
3:35 AM 32.0 °F 24.2 °F 28.4 °F 87% 29.73 in 8.0 mi WSW 9.2 mph - N/A   Overcast
3:55 AM 32.0 °F 23.0 °F 28.4 °F 87% 29.73 in 4.0 mi WSW 11.5 mph - N/A   Overcast
4:15 AM 32.0 °F 24.2 °F 28.4 °F 87% 29.72 in 4.0 mi SW 9.2 mph - N/A   Overcast
4:35 AM 32.0 °F 23.6 °F 28.4 °F 87% 29.72 in 7.0 mi SW 10.4 mph - N/A   Mostly Cloudy
4:55 AM 32.0 °F 24.8 °F 28.4 °F 87% 29.72 in 7.0 mi WSW 8.1 mph - N/A   Overcast
5:35 AM 33.8 °F 25.8 °F 28.4 °F 81% 29.71 in 6.0 mi WSW 10.4 mph - N/A   Overcast
5:55 AM 33.8 °F 27.0 °F 30.2 °F 87% 29.70 in 7.0 mi WSW 8.1 mph - N/A   Overcast
6:15 AM 33.8 °F 26.4 °F 30.2 °F 87% 29.70 in 10.0 mi WSW 9.2 mph - N/A   Overcast
6:35 AM 33.8 °F 27.7 °F 30.2 °F 87% 29.69 in 10.0 mi WSW 6.9 mph - N/A   Overcast
6:55 AM 33.8 °F 27.7 °F 30.2 °F 87% 29.69 in 9.0 mi WSW 6.9 mph - N/A   Mostly Cloudy
7:15 AM 33.8 °F 27.0 °F 30.2 °F 87% 29.70 in 10.0 mi WSW 8.1 mph - N/A   Overcast
7:35 AM 33.8 °F 27.0 °F 30.2 °F 87% 29.69 in 8.0 mi WSW 8.1 mph - N/A   Overcast
7:55 AM 33.8 °F 27.7 °F 30.2 °F 87% 29.69 in 8.0 mi WSW 6.9 mph - N/A   Overcast
8:15 AM 33.8 °F 26.4 °F 30.2 °F 87% 29.68 in 3.0 mi WSW 9.2 mph - N/A   Overcast
8:35 AM 33.8 °F 26.4 °F 30.2 °F 87% 29.69 in 5.0 mi WSW 9.2 mph - N/A   Overcast
8:55 AM 33.8 °F 27.0 °F 30.2 °F 87% 29.68 in 4.0 mi WSW 8.1 mph - N/A   Overcast
9:15 AM 33.8 °F 25.8 °F 30.2 °F 87% 29.68 in 7.0 mi WSW 10.4 mph - N/A   Mostly Cloudy
9:35 AM 33.8 °F 26.4 °F 30.2 °F 87% 29.68 in 9.0 mi WSW 9.2 mph - N/A   Overcast
9:55 AM 35.6 °F 29.9 °F 30.2 °F 81% 29.67 in 10.0 mi WSW 6.9 mph - N/A   Overcast
10:15 AM 35.6 °F 28.6 °F 32.0 °F 87% 29.67 in 9.0 mi West 9.2 mph - N/A   Overcast
10:35 AM 35.6 °F 28.6 °F 33.8 °F 93% 29.67 in 10.0 mi WSW 9.2 mph 19.6 mph N/A   Overcast
10:55 AM 35.6 °F 29.2 °F 32.0 °F 87% 29.67 in 10.0 mi West 8.1 mph - N/A   Overcast
11:15 AM 35.6 °F 29.9 °F 32.0 °F 87% 29.67 in 10.0 mi West 6.9 mph - N/A   Overcast
11:35 AM 35.6 °F 28.0 °F 33.8 °F 93% 29.67 in 10.0 mi West 10.4 mph 16.1 mph N/A   Overcast
11:55 AM 37.4 °F 32.8 °F 32.0 °F 81% 29.66 in 10.0 mi West 5.8 mph - N/A   Overcast
12:15 PM 37.4 °F 32.1 °F 32.0 °F 81% 29.67 in 10.0 mi West 6.9 mph - N/A   Overcast
12:35 PM 35.6 °F 31.7 °F 28.4 °F 75% 29.67 in 10.0 mi NNW 4.6 mph - N/A   Overcast
12:55 PM 35.6 °F 30.7 °F 28.4 °F 75% 29.67 in 10.0 mi NNW 5.8 mph - N/A   Overcast
1:15 PM 35.6 °F 32.8 °F 28.4 °F 75% 29.68 in 10.0 mi NW 3.5 mph - N/A   Overcast
1:35 PM 37.4 °F 32.8 °F 28.4 °F 70% 29.68 in 10.0 mi WNW 5.8 mph - N/A   Mostly Cloudy
1:55 PM 39.2 °F 34.2 °F 30.2 °F 70% 29.68 in 10.0 mi NNW 6.9 mph - N/A   Mostly Cloudy
2:15 PM 39.2 °F 35.0 °F 26.6 °F 61% 29.68 in 10.0 mi NW 5.8 mph - N/A   Mostly Cloudy
2:35 PM 39.2 °F 33.6 °F 26.6 °F 61% 29.68 in 10.0 mi NW 8.1 mph 17.3 mph N/A   Overcast
2:55 PM 39.2 °F 34.2 °F 24.8 °F 56% 29.69 in 10.0 mi NW 6.9 mph - N/A   Scattered Clouds
3:15 PM 37.4 °F 32.1 °F 21.2 °F 52% 29.70 in 10.0 mi WNW 6.9 mph - N/A   Clear
3:35 PM 39.2 °F 33.6 °F 19.4 °F 45% 29.70 in 10.0 mi WNW 8.1 mph - N/A   Clear
3:55 PM 37.4 °F 32.1 °F 21.2 °F 52% 29.71 in 10.0 mi NNW 6.9 mph - N/A   Clear
4:15 PM 37.4 °F 33.8 °F 19.4 °F 48% 29.72 in 10.0 mi NW 4.6 mph - N/A   Clear
4:35 PM 35.6 °F 32.8 °F 17.6 °F 48% 29.73 in 10.0 mi NW 3.5 mph - N/A   Clear
4:55 PM 35.6 °F - 17.6 °F 48% 29.75 in 10.0 mi Calm Calm - N/A   Clear
5:15 PM 33.8 °F - 17.6 °F 52% 29.76 in 10.0 mi Calm Calm - N/A   Clear
5:35 PM 33.8 °F 30.8 °F 15.8 °F 48% 29.77 in 10.0 mi NW 3.5 mph - N/A   Clear
5:55 PM 33.8 °F - 17.6 °F 52% 29.78 in 10.0 mi Calm Calm - N/A   Clear
6:15 PM 32.0 °F - 15.8 °F 51% 29.78 in 10.0 mi Calm Calm - N/A   Clear
6:35 PM 30.2 °F - 19.4 °F 64% 29.79 in 10.0 mi Calm Calm - N/A   Clear
6:55 PM 30.2 °F - 19.4 °F 64% 29.80 in 10.0 mi Calm Calm - N/A   Clear
7:15 PM 28.4 °F - 21.2 °F 74% 29.81 in 10.0 mi Calm Calm - N/A   Clear
7:35 PM 28.4 °F - 21.2 °F 74% 29.82 in 10.0 mi Calm Calm - N/A   Clear
7:55 PM 28.4 °F - 21.2 °F 74% 29.82 in 10.0 mi Calm Calm - N/A   Clear
8:15 PM 28.4 °F 24.6 °F 19.4 °F 69% 29.82 in 8.0 mi North 3.5 mph - N/A   Clear
8:35 PM 26.6 °F 22.6 °F 23.0 °F 86% 29.83 in 10.0 mi North 3.5 mph - N/A   Clear
8:55 PM 26.6 °F - 21.2 °F 80% 29.83 in 10.0 mi Calm Calm - N/A   Clear
9:15 PM 26.6 °F - 21.2 °F 80% 29.83 in 10.0 mi Calm Calm - N/A   Clear
9:35 PM 28.4 °F 24.6 °F 17.6 °F 64% 29.83 in 10.0 mi North 3.5 mph - N/A   Clear
9:55 PM 28.4 °F 24.6 °F 17.6 °F 64% 29.84 in 10.0 mi North 3.5 mph - N/A   Clear
10:15 PM 28.4 °F 24.6 °F 15.8 °F 59% 29.85 in 10.0 mi NNE 3.5 mph - N/A   Clear
10:35 PM 28.4 °F 21.2 °F 15.8 °F 59% 29.85 in 10.0 mi NNE 6.9 mph - N/A   Clear
10:55 PM 28.4 °F 21.2 °F 15.8 °F 59% 29.86 in 10.0 mi NNE 6.9 mph - N/A   Clear
11:15 PM 28.4 °F 21.2 °F 17.6 °F 64% 29.87 in 10.0 mi NNE 6.9 mph - N/A   Scattered Clouds
11:35 PM 28.4 °F 20.4 °F 17.6 °F 64% 29.87 in 10.0 mi NNE 8.1 mph - N/A   Partly Cloudy
11:55 PM 28.4 °F 20.4 °F 17.6 °F 64% 29.88 in 10.0 mi NNE 8.1 mph - N/A   Partly Cloudy